TimeCST,TemperatureF,Dew PointF,Humidity,Sea Level PressureIn,VisibilityMPH,Wind Direction,Wind SpeedMPH,Gust SpeedMPH,PrecipitationIn,Events,Conditions,WindDirDegrees,DateUTC
12:52 AM,28.0,14.0,56,30.31,10.0,SSE,15.0,-,N/A,,Clear,160,2013-01-27 06:52:00
1:52 AM,28.0,14.0,56,30.29,10.0,SSE,15.0,-,N/A,,Partly Cloudy,150,2013-01-27 07:52:00
2:52 AM,28.9,15.1,56,30.27,10.0,SSE,15.0,-,N/A,,Clear,160,2013-01-27 08:52:00
3:52 AM,28.9,16.0,58,30.25,9.0,SSE,11.5,-,N/A,,Partly Cloudy,150,2013-01-27 09:52:00
4:52 AM,28.9,17.1,61,30.23,9.0,SSE,12.7,-,N/A,,Partly Cloudy,160,2013-01-27 10:52:00
5:52 AM,30.0,17.1,59,30.22,8.0,SE,15.0,-,N/A,,Mostly Cloudy,140,2013-01-27 11:52:00
6:52 AM,30.0,17.1,59,30.23,8.0,SSE,11.5,-,N/A,,Overcast,150,2013-01-27 12:52:00
7:52 AM,30.0,17.1,59,30.25,8.0,SSE,11.5,-,N/A,,Overcast,160,2013-01-27 13:52:00
8:52 AM,30.0,18.0,61,30.23,5.0,SSE,16.1,-,0.00,,Overcast,150,2013-01-27 14:52:00
9:34 AM,30.2,21.2,69,30.16,3.0,SE,15.0,-,0.01,Rain,Light Freezing Rain,130,2013-01-27 15:34:00
9:52 AM,28.9,23.0,78,30.18,5.0,SE,15.0,-,0.01,Rain,Light Freezing Rain,130,2013-01-27 15:52:00
10:01 AM,30.2,23.0,75,30.14,4.0,SE,18.4,-,0.00,,Haze,130,2013-01-27 16:01:00
10:52 AM,30.9,24.1,76,30.16,3.0,SE,12.7,-,0.01,Rain,Light Freezing Rain,130,2013-01-27 16:52:00
11:00 AM,30.2,24.8,80,30.13,2.0,SE,13.8,-,0.01,Rain,Light Freezing Rain,130,2013-01-27 17:00:00
11:17 AM,30.2,26.6,86,30.10,1.8,ESE,16.1,-,0.02,Rain,Light Freezing Rain,120,2013-01-27 17:17:00
11:23 AM,30.2,24.8,80,30.11,2.0,SE,17.3,-,0.02,Rain,Light Freezing Rain,130,2013-01-27 17:23:00
11:31 AM,30.2,26.6,86,30.10,1.8,SE,17.3,-,0.04,Rain,Light Freezing Rain,140,2013-01-27 17:31:00
11:48 AM,30.2,28.4,93,30.10,1.2,SE,11.5,-,0.07,Rain,Light Freezing Rain,130,2013-01-27 17:48:00
11:52 AM,30.9,27.0,85,30.14,1.2,SE,13.8,-,0.08,Rain,Light Freezing Rain,130,2013-01-27 17:52:00
12:27 PM,30.2,28.4,93,30.06,1.0,SE,18.4,-,0.08,Rain,Light Freezing Rain,130,2013-01-27 18:27:00
12:33 PM,30.2,28.4,93,30.04,1.0,ESE,17.3,24.2,0.08,Rain,Light Freezing Rain,120,2013-01-27 18:33:00
12:38 PM,30.2,28.4,93,30.03,0.8,ESE,18.4,24.2,0.09,Rain,Light Freezing Rain,120,2013-01-27 18:38:00
12:48 PM,30.2,30.2,100,30.03,1.0,ESE,17.3,24.2,0.10,Rain,Light Freezing Rain,120,2013-01-27 18:48:00
12:49 PM,30.9,30.0,96,30.06,1.0,SE,18.4,24.2,0.10,Rain,Light Freezing Rain,130,2013-01-27 18:49:00
1:10 PM,32.0,30.2,93,30.02,1.0,SE,19.6,-,0.03,Rain,Light Freezing Rain,130,2013-01-27 19:10:00
1:14 PM,32.0,30.2,93,29.99,1.0,SE,26.5,-,0.03,Rain,Light Freezing Rain,130,2013-01-27 19:14:00
1:52 PM,32.0,30.0,92,30.01,1.5,SE,16.1,24.2,0.05,Rain,Light Freezing Rain,140,2013-01-27 19:52:00
2:39 PM,32.0,30.2,93,29.94,1.5,SE,18.4,26.5,0.01,Rain-Thunderstorm,Light Freezing Rain,140,2013-01-27 20:39:00
2:52 PM,33.1,30.9,92,29.97,2.0,SE,20.7,27.6,0.01,Rain-Thunderstorm,Light Freezing Rain,140,2013-01-27 20:52:00
3:00 PM,33.8,30.2,87,29.94,3.0,SE,19.6,31.1,0.00,Rain,Light Freezing Rain,140,2013-01-27 21:00:00
3:15 PM,33.8,30.2,87,29.93,2.5,SSE,19.6,-,0.00,,Overcast,150,2013-01-27 21:15:00
3:52 PM,34.0,32.0,92,29.95,1.8,SSE,19.6,-,0.00,,Overcast,150,2013-01-27 21:52:00
4:52 PM,34.0,32.0,92,29.92,1.5,SSE,19.6,-,0.00,,Overcast,150,2013-01-27 22:52:00
5:11 PM,33.8,33.8,100,29.88,2.0,SSE,17.3,-,0.00,,Overcast,150,2013-01-27 23:11:00
5:22 PM,33.8,33.8,100,29.89,1.8,SSE,20.7,26.5,0.00,Rain,Light Rain,150,2013-01-27 23:22:00
5:35 PM,33.8,33.8,100,29.88,1.2,SSE,19.6,27.6,0.01,,Overcast,160,2013-01-27 23:35:00
5:52 PM,34.0,33.1,96,29.90,1.5,SSE,19.6,23.0,0.01,,Overcast,160,2013-01-27 23:52:00
6:52 PM,35.1,34.0,96,29.88,1.5,SSE,15.0,-,N/A,,Overcast,160,2013-01-28 00:52:00
7:52 PM,36.0,35.1,97,29.88,1.5,SSE,10.4,-,N/A,,Overcast,150,2013-01-28 01:52:00
8:16 PM,37.4,35.6,93,29.86,1.5,SSE,10.4,-,N/A,,Overcast,160,2013-01-28 02:16:00
8:52 PM,37.0,36.0,96,29.88,1.8,SSE,6.9,-,N/A,,Overcast,150,2013-01-28 02:52:00
9:28 PM,37.4,35.6,93,29.85,2.0,SSE,6.9,-,N/A,,Overcast,150,2013-01-28 03:28:00
9:52 PM,37.9,36.0,93,29.86,2.0,SSE,9.2,-,N/A,,Overcast,150,2013-01-28 03:52:00
10:32 PM,39.2,37.4,93,29.82,3.0,South,15.0,-,N/A,,Overcast,170,2013-01-28 04:32:00
10:49 PM,41.0,39.2,93,29.82,2.5,South,13.8,-,N/A,,Overcast,180,2013-01-28 04:49:00
10:52 PM,41.0,39.0,93,29.84,2.5,South,13.8,-,N/A,,Overcast,180,2013-01-28 04:52:00
11:52 PM,43.0,42.1,97,29.83,2.5,South,15.0,-,N/A,,Overcast,180,2013-01-28 05:52:00